Baton Rouge, LA

2:44 PM CDT on May 26, 2017 (GMT -0500)
Baton Rouge Metro-Ryan

Weather History for KBTR - September, 2011

Change the Weather History Date:

Monday, September 26, 2011

  Actual Average Record
Temperature  
Mean Temperature 82 °F 76 °F  
Max Temperature 92 °F 86 °F 99 °F (1921)
Min Temperature 72 °F 65 °F 49 °F (1975)
Degree Days  
Heating Degree Days 0 0  
Month to date heating degree days 0 0  
Since 1 July heating degree days 0 0  
Cooling Degree Days 17 11  
Month to date cooling degree days 288 369  
Year to date cooling degree days 2799 2530  
Growing Degree Days 32 (Base 50)    
Moisture  
Dew Point 72 °F    
Average Humidity 75    
Maximum Humidity 100    
Minimum Humidity 49    
Precipitation  
Precipitation 0.00 in 0.14 in 3.60 in (1957)
Month to date precipitation 9.50 3.97  
Year to date precipitation 38.32 45.68  
Snow  
Snow 0.00 in - - ()
Month to date snowfall 0.0  
Since 1 July snowfall 0.0  
Since 1 September snowfall 0.0  
Snow Depth 0.00 in    
Sea Level Pressure  
Sea Level Pressure 29.87 in    
Wind  
Wind Speed 8 mph (SSW)    
Max Wind Speed 17 mph    
Max Gust Speed 23 mph    
Visibility 10 miles    
Events      
T = Trace of Precipitation, MM = Missing Value Source: NWS Daily Summary

Daily Weather History Graph

Daily Weather History Graph

Search for Another Location

Airport or City:

Trip Planner

Search our weather history database for the weather conditions in past years. The results will help you decide how hot, cold, wet, or windy it might be!

Date:

Astronomy

Sep. 26, 2011 Rise Set
Actual Time 6:55 AM CDT 6:56 PM CDT
Civil Twilight 6:31 AM CDT 7:20 PM CDT
Nautical Twilight 6:03 AM CDT 7:48 PM CDT
Astronomical Twilight 5:34 AM CDT 8:16 PM CDT
Moon 5:55 AM CDT 6:13 PM CDT
Length of Visible Light 12h 49m
Length of Day
12h 01m
Waning Crescent, 1% of the Moon is Illuminated
Sep 26
Waning Crescent
Sep 27
New
Oct 3
First Quarter
Oct 11
Full
Oct 19
Last Quarter

Hourly Weather History & Observations

Time (CDT) Temp. Heat Index Dew Point Humidity Pressure Visibility Wind Dir Wind Speed Gust Speed Precip Events Conditions
12:53 AM 73.9 °F - 71.1 °F 91% 29.83 in 10.0 mi SSE 3.5 mph - N/A   Clear
1:53 AM 73.0 °F - 71.1 °F 93% 29.84 in 10.0 mi SSE 5.8 mph - N/A   Clear
2:53 AM 73.0 °F - 71.1 °F 93% 29.84 in 10.0 mi SSE 3.5 mph - N/A   Clear
3:53 AM 72.0 °F - 71.1 °F 97% 29.85 in 10.0 mi Calm Calm - N/A   Clear
4:53 AM 72.0 °F - 71.1 °F 97% 29.87 in 10.0 mi SSE 3.5 mph - N/A   Clear
5:53 AM 72.0 °F - 71.1 °F 97% 29.88 in 9.0 mi SSE 4.6 mph - N/A   Clear
6:53 AM 72.0 °F - 71.1 °F 97% 29.89 in 9.0 mi South 5.8 mph - N/A   Clear
7:53 AM 75.0 °F - 73.0 °F 94% 29.89 in 10.0 mi South 6.9 mph - N/A   Clear
8:53 AM 80.1 °F 84.5 °F 73.9 °F 81% 29.90 in 10.0 mi SW 13.8 mph - N/A   Clear
9:53 AM 82.9 °F 88.8 °F 73.0 °F 72% 29.91 in 10.0 mi SW 11.5 mph 19.6 mph N/A   Scattered Clouds
10:53 AM 86.0 °F 93.0 °F 73.0 °F 65% 29.91 in 10.0 mi WSW 15.0 mph 21.9 mph N/A   Mostly Cloudy
11:53 AM 89.1 °F 96.0 °F 72.0 °F 57% 29.91 in 10.0 mi SW 12.7 mph - N/A   Mostly Cloudy
12:53 PM 90.0 °F 96.9 °F 72.0 °F 55% 29.89 in 10.0 mi West 13.8 mph 20.7 mph N/A   Mostly Cloudy
1:53 PM 90.0 °F 96.9 °F 72.0 °F 55% 29.88 in 10.0 mi West 11.5 mph - N/A   Scattered Clouds
2:53 PM 91.0 °F 97.6 °F 71.1 °F 52% 29.85 in 10.0 mi WSW 10.4 mph - N/A   Scattered Clouds
3:53 PM 91.0 °F 97.6 °F 71.1 °F 52% 29.84 in 10.0 mi West 8.1 mph - N/A   Scattered Clouds
4:53 PM 91.0 °F 96.6 °F 70.0 °F 50% 29.83 in 10.0 mi WSW 8.1 mph - N/A   Clear
5:53 PM 88.0 °F 93.8 °F 71.1 °F 57% 29.83 in 10.0 mi WSW 8.1 mph - N/A   Mostly Cloudy
6:53 PM 84.9 °F 90.7 °F 72.0 °F 65% 29.84 in 10.0 mi WSW 8.1 mph - N/A   Scattered Clouds
7:53 PM 84.0 °F 90.2 °F 73.0 °F 69% 29.85 in 10.0 mi SSW 9.2 mph - N/A   Scattered Clouds
8:53 PM 82.0 °F 87.9 °F 73.9 °F 76% 29.86 in 10.0 mi SSW 11.5 mph - N/A   Mostly Cloudy
9:53 PM 80.1 °F 84.5 °F 73.9 °F 81% 29.88 in 10.0 mi South 9.2 mph - N/A   Clear
10:53 PM 80.1 °F 85.1 °F 75.0 °F 85% 29.88 in 10.0 mi SW 10.4 mph - N/A   Clear
11:53 PM 78.1 °F - 73.9 °F 87% 29.90 in 10.0 mi SW 6.9 mph - N/A   Clear